Regional Weather Roundup
Issued by NWS Cleveland, OH

Home | Current Version | Previous Version | Text Only | Print | Product List | Glossary Off
Versions: 1 2 3 4 5 6 7 8 9 10 11 12 13 14 15 16 17 18 19 20 21 22 23 24 25 26 27 28 29 30 31 32 33 34 35 36 37 38 39 40 41 42 43 44 45 46 47 48 49 50

000
ASUS41 KCLE 101210
RWRCLE
OHIO REGIONAL WEATHER ROUNDUP
NATIONAL WEATHER SERVICE CLEVELAND, OH
700 AM EST WED FEB 10 2016

NOTE: "FAIR" INDICATES FEW OR NO CLOUDS BELOW 12,000 FEET WITH NO
SIGNIFICANT WEATHER AND/OR OBSTRUCTIONS TO VISIBILITY.

OHZ001>008-015>018-024>027-034-035-043-044-101300-
   NORTHWEST OHIO

CITY           SKY/WX    TMP DP  RH WIND       PRES   REMARKS
DEFIANCE       LGT SNOW  20  15  81 W9        29.85R WCI   9
FINDLAY        FLURRIES  19  13  77 W17       29.82R WCI   4
TOLEDO EXPRESS CLOUDY    20  13  74 W13       29.81R WCI   7
TOLEDO EXEC    CLOUDY    22  15  75 W17       29.80R WCI   8
LIMA           LGT SNOW  16  12  84 W16       29.85R FOG     WCI   1
$$

OHZ009>014-019>023-028>033-038-089-101300-
   NORTHEAST OHIO

CITY           SKY/WX    TMP DP  RH WIND       PRES   REMARKS
CLE-HOPKINS    FLURRIES  21  15  78 SW13      29.79R WCI   9
CLE-LAKEFRONT  FLURRIES  23  17  78 SW22      29.76R WCI   8
CUY CO. ARPT   FLURRIES  25  19  80 W16G23    29.75  WCI  12
LORAIN-ELYRIA  CLOUDY    20  14  77 W15       29.79R WCI   6
ASHTABULA      LGT SNOW  23  20  88 W15       29.71R FOG     WCI  10
AKRON-CANTON   LGT SNOW  20  14  77 W13G21    29.76R WCI   7
WOOSTER        CLOUDY    19  13  77 W14       29.78S WCI   6
MANSFIELD      LGT SNOW  17  13  84 SW13G22   29.78R FOG     WCI   4
YOUNGSTOWN     LGT SNOW  22  16  78 SW12      29.72R WCI  10
$$

OHZ042-051>053-060>062-070>072-077>081-101300-
  SOUTHWEST OHIO

CITY           SKY/WX    TMP DP  RH WIND       PRES   REMARKS
CINC-COVINGTON LGT SNOW  15  11  83 W12       29.96R FOG     WCI   2
CINC-LUNKEN    LGT SNOW  17  12  80 W10       30.00R WCI   5
HAMILTON       CLOUDY    16   9  74 W10       29.98R WCI   4
DAYTON         LGT SNOW  15  11  83 W16       29.90R FOG     WCI  -1
WRIGHT-PAT AFB FLURRIES  15  11  82 SW14      29.90R WCI   1
DAYTON GENERAL LGT SNOW  15   9  76 W13       29.91R WCI   1
WILMINGTON     LGT SNOW  14  10  84 W17       29.90R FOG     WCI  -3
$$

OHZ036-037-039>041-045>050-054>059-063>069-073>076-082>088-101300-
  CENTRAL AND SOUTHEAST OHIO

CITY           SKY/WX    TMP DP  RH WIND       PRES   REMARKS
COLUMBUS       LGT SNOW  15   9  76 SW10      29.88R WCI   2
OSU AIRPORT    LGT SNOW  16  10  77 SW13      29.87R WCI   2
BOLTON FIELD   NOT AVBL
RICKENBACK AFB LGT SNOW  15  10  82 SW12      29.90R WCI   1
NEWARK         LGT SNOW  16  10  77 MISG      29.86S
MARION         LGT SNOW  17  10  74 W15       29.83S WCI   2
LANCASTER      LGT SNOW  15   9  76 SW12      29.89S WCI   2
ZANESVILLE     FLURRIES  17   9  70 W12       29.87R WCI   4
NEW PHILLY     FLURRIES  19  13  77 SW9       29.83R WCI   8
$$



USA.gov is the U.S. government's official web portal to all federal, state and local government web resources and services.